Time,TemperatureF,DewpointF,PressureIn,WindDirection,WindDirectionDegrees,WindSpeedMPH,WindSpeedGustMPH,Humidity,HourlyPrecipIn,Conditions,Clouds,dailyrainin,SoftwareType,DateUTC
2013-01-27 00:14:00,15.2,1.0,30.23,NNW,333,5.0,9.0,53,0.00,,,0.00,weatherlink.com 1.10,2013-01-27 05:14:00,
2013-01-27 00:29:00,15.1,1.0,30.24,West,273,5.0,9.0,54,0.00,,,0.00,weatherlink.com 1.10,2013-01-27 05:29:00,
2013-01-27 00:44:00,14.9,1.0,30.23,West,264,3.0,8.0,55,0.00,,,0.00,weatherlink.com 1.10,2013-01-27 05:44:00,
2013-01-27 00:59:00,14.9,1.0,30.25,NW,320,1.0,6.0,55,0.00,,,0.00,weatherlink.com 1.10,2013-01-27 05:59:00,
2013-01-27 01:14:00,14.8,2.0,30.25,NW,307,3.0,9.0,56,0.00,,,0.00,weatherlink.com 1.10,2013-01-27 06:14:00,
2013-01-27 01:29:00,14.8,2.0,30.26,WNW,290,5.0,6.0,56,0.00,,,0.00,weatherlink.com 1.10,2013-01-27 06:29:00,
2013-01-27 01:44:00,14.7,2.0,30.26,WNW,295,2.0,7.0,57,0.00,,,0.00,weatherlink.com 1.10,2013-01-27 06:44:00,
2013-01-27 01:59:00,14.7,2.0,30.26,WSW,246,3.0,5.0,57,0.00,,,0.00,weatherlink.com 1.10,2013-01-27 06:59:00,
2013-01-27 02:14:00,14.7,2.0,30.26,NW,312,2.0,8.0,57,0.00,,,0.00,weatherlink.com 1.10,2013-01-27 07:14:00,
2013-01-27 02:29:00,14.7,2.0,30.27,WSW,250,1.0,8.0,58,0.00,,,0.00,weatherlink.com 1.10,2013-01-27 07:29:00,
2013-01-27 02:44:00,14.6,3.0,30.27,West,277,1.0,7.0,59,0.00,,,0.00,weatherlink.com 1.10,2013-01-27 07:44:00,
2013-01-27 02:59:00,14.6,2.0,30.28,West,269,5.0,9.0,58,0.00,,,0.00,weatherlink.com 1.10,2013-01-27 07:59:00,
2013-01-27 03:14:00,14.8,3.0,30.28,NNE,29,2.0,9.0,59,0.00,,,0.00,weatherlink.com 1.10,2013-01-27 08:14:00,
2013-01-27 03:30:00,13.9,2.0,30.28,WSW,250,1.0,4.0,60,0.00,,,0.00,weatherlink.com 1.10,2013-01-27 08:30:00,
2013-01-27 03:44:00,13.4,2.0,30.29,NW,314,0.0,3.0,61,0.00,,,0.00,weatherlink.com 1.10,2013-01-27 08:44:00,
2013-01-27 04:00:00,13.2,2.0,30.29,WNW,286,4.0,8.0,62,0.00,,,0.00,weatherlink.com 1.10,2013-01-27 09:00:00,
2013-01-27 04:15:00,13.2,2.0,30.30,NNE,12,0.0,4.0,62,0.00,,,0.00,weatherlink.com 1.10,2013-01-27 09:15:00,
2013-01-27 04:30:00,13.0,3.0,30.29,WNW,283,0.0,2.0,63,0.00,,,0.00,weatherlink.com 1.10,2013-01-27 09:30:00,
2013-01-27 04:45:00,13.0,3.0,30.30,West,272,0.0,6.0,63,0.00,,,0.00,weatherlink.com 1.10,2013-01-27 09:45:00,
2013-01-27 05:00:00,12.8,3.0,30.30,WSW,254,1.0,4.0,64,0.00,,,0.00,weatherlink.com 1.10,2013-01-27 10:00:00,
2013-01-27 05:15:00,12.8,3.0,30.30,WNW,286,2.0,5.0,64,0.00,,,0.00,weatherlink.com 1.10,2013-01-27 10:15:00,
2013-01-27 05:30:00,12.8,3.0,30.30,West,270,1.0,5.0,64,0.00,,,0.00,weatherlink.com 1.10,2013-01-27 10:30:00,
2013-01-27 05:45:00,12.7,3.0,30.31,West,269,6.0,7.0,64,0.00,,,0.00,weatherlink.com 1.10,2013-01-27 10:45:00,
2013-01-27 06:00:00,12.8,3.0,30.31,WNW,290,2.0,7.0,64,0.00,,,0.00,weatherlink.com 1.10,2013-01-27 11:00:00,
2013-01-27 06:15:00,12.9,3.0,30.32,West,276,2.0,6.0,64,0.00,,,0.00,weatherlink.com 1.10,2013-01-27 11:15:00,
2013-01-27 06:30:00,12.8,3.0,30.32,WSW,248,0.0,6.0,64,0.00,,,0.00,weatherlink.com 1.10,2013-01-27 11:30:00,
2013-01-27 06:45:00,12.8,3.0,30.32,WNW,284,0.0,8.0,64,0.00,,,0.00,weatherlink.com 1.10,2013-01-27 11:45:00,
2013-01-27 07:00:00,12.9,3.0,30.33,WSW,242,1.0,5.0,64,0.00,,,0.00,weatherlink.com 1.10,2013-01-27 12:00:00,
2013-01-27 07:15:00,12.9,3.0,30.33,WSW,253,2.0,4.0,64,0.00,,,0.00,weatherlink.com 1.10,2013-01-27 12:15:00,
2013-01-27 07:30:00,13.3,3.0,30.34,NNW,327,2.0,6.0,64,0.00,,,0.00,weatherlink.com 1.10,2013-01-27 12:30:00,
2013-01-27 07:45:00,13.8,3.0,30.35,West,273,2.0,10.0,63,0.00,,,0.00,weatherlink.com 1.10,2013-01-27 12:45:00,
2013-01-27 08:00:00,14.3,3.0,30.35,WNW,288,4.0,7.0,62,0.00,,,0.00,weatherlink.com 1.10,2013-01-27 13:00:00,
2013-01-27 08:15:00,15.0,4.0,30.36,NNE,23,1.0,9.0,61,0.00,,,0.00,weatherlink.com 1.10,2013-01-27 13:15:00,
2013-01-27 08:30:00,16.1,4.0,30.36,NW,311,2.0,7.0,59,0.00,,,0.00,weatherlink.com 1.10,2013-01-27 13:30:00,
2013-01-27 08:45:00,17.0,4.0,30.37,West,281,4.0,11.0,56,0.00,,,0.00,weatherlink.com 1.10,2013-01-27 13:45:00,
2013-01-27 09:01:00,18.0,4.0,30.37,North,1,3.0,9.0,54,0.00,,,0.00,weatherlink.com 1.10,2013-01-27 14:01:00,
2013-01-27 09:16:00,18.9,3.0,30.37,WNW,301,3.0,7.0,51,0.00,,,0.00,weatherlink.com 1.10,2013-01-27 14:16:00,
2013-01-27 09:30:00,19.6,2.0,30.38,WNW,290,6.0,12.0,47,0.00,,,0.00,weatherlink.com 1.10,2013-01-27 14:30:00,
2013-01-27 09:46:00,20.7,2.0,30.39,WNW,285,7.0,14.0,45,0.00,,,0.00,weatherlink.com 1.10,2013-01-27 14:46:00,
2013-01-27 10:01:00,21.2,1.0,30.39,WNW,290,3.0,13.0,42,0.00,,,0.00,weatherlink.com 1.10,2013-01-27 15:01:00,
2013-01-27 10:16:00,22.0,2.0,30.39,WSW,256,4.0,13.0,41,0.00,,,0.00,weatherlink.com 1.10,2013-01-27 15:16:00,
2013-01-27 10:31:00,22.8,2.0,30.39,WNW,295,5.0,10.0,40,0.00,,,0.00,weatherlink.com 1.10,2013-01-27 15:31:00,
2013-01-27 10:45:00,23.5,1.0,30.39,North,8,6.0,13.0,38,0.00,,,0.00,weatherlink.com 1.10,2013-01-27 15:45:00,
2013-01-27 11:00:00,24.5,2.0,30.39,WSW,249,4.0,10.0,38,0.00,,,0.00,weatherlink.com 1.10,2013-01-27 16:00:00,
2013-01-27 11:15:00,25.0,2.0,30.39,NE,42,3.0,8.0,37,0.00,,,0.00,weatherlink.com 1.10,2013-01-27 16:15:00,
2013-01-27 11:30:00,25.7,1.0,30.39,NNW,347,2.0,9.0,35,0.00,,,0.00,weatherlink.com 1.10,2013-01-27 16:30:00,
2013-01-27 11:45:00,26.4,2.0,30.39,ENE,60,4.0,9.0,35,0.00,,,0.00,weatherlink.com 1.10,2013-01-27 16:45:00,
2013-01-27 12:00:00,26.8,2.0,30.39,NNE,18,4.0,14.0,35,0.00,,,0.00,weatherlink.com 1.10,2013-01-27 17:00:00,
2013-01-27 12:15:00,27.3,2.0,30.38,NW,306,7.0,12.0,33,0.00,,,0.00,weatherlink.com 1.10,2013-01-27 17:15:00,
2013-01-27 12:30:00,27.7,2.0,30.38,NW,310,6.0,13.0,33,0.00,,,0.00,weatherlink.com 1.10,2013-01-27 17:30:00,
2013-01-27 12:45:00,28.5,2.0,30.37,SW,225,8.0,10.0,32,0.00,,,0.00,weatherlink.com 1.10,2013-01-27 17:45:00,
2013-01-27 13:00:00,28.6,1.0,30.38,NW,319,4.0,11.0,31,0.00,,,0.00,weatherlink.com 1.10,2013-01-27 18:00:00,
2013-01-27 13:30:00,29.6,1.0,30.37,WSW,238,2.0,12.0,29,0.00,,,0.00,weatherlink.com 1.10,2013-01-27 18:30:00,
2013-01-27 13:46:00,29.7,1.0,30.37,SSE,149,1.0,12.0,29,0.00,,,0.00,weatherlink.com 1.10,2013-01-27 18:46:00,
2013-01-27 14:00:00,30.6,2.0,30.36,NE,37,0.0,9.0,29,0.00,,,0.00,weatherlink.com 1.10,2013-01-27 19:00:00,
2013-01-27 14:15:00,31.2,1.0,30.36,NNW,333,4.0,6.0,27,0.00,,,0.00,weatherlink.com 1.10,2013-01-27 19:15:00,
2013-01-27 14:31:00,31.1,1.0,30.37,West,273,5.0,13.0,27,0.00,,,0.00,weatherlink.com 1.10,2013-01-27 19:31:00,
2013-01-27 14:45:00,31.0,1.0,30.36,West,274,12.0,16.0,28,0.00,,,0.00,weatherlink.com 1.10,2013-01-27 19:45:00,
2013-01-27 15:01:00,31.3,1.0,30.37,West,269,3.0,10.0,27,0.00,,,0.00,weatherlink.com 1.10,2013-01-27 20:01:00,
2013-01-27 15:16:00,31.0,1.0,30.37,SW,224,5.0,13.0,27,0.00,,,0.00,weatherlink.com 1.10,2013-01-27 20:16:00,
2013-01-27 15:31:00,31.1,1.0,30.37,NW,314,5.0,15.0,27,0.00,,,0.00,weatherlink.com 1.10,2013-01-27 20:31:00,
2013-01-27 15:46:00,30.7,0.0,30.36,West,278,4.0,10.0,27,0.00,,,0.00,weatherlink.com 1.10,2013-01-27 20:46:00,
2013-01-27 16:01:00,30.3,1.0,30.37,WNW,284,2.0,6.0,28,0.00,,,0.00,weatherlink.com 1.10,2013-01-27 21:01:00,
2013-01-27 16:16:00,30.2,1.0,30.37,West,263,5.0,6.0,28,0.00,,,0.00,weatherlink.com 1.10,2013-01-27 21:16:00,
2013-01-27 16:31:00,29.6,-1.0,30.38,NNW,336,6.0,9.0,27,0.00,,,0.00,weatherlink.com 1.10,2013-01-27 21:31:00,
2013-01-27 16:46:00,29.2,0.0,30.39,WNW,284,1.0,9.0,28,0.00,,,0.00,weatherlink.com 1.10,2013-01-27 21:46:00,
2013-01-27 17:01:00,28.5,0.0,30.40,ESE,108,0.0,2.0,29,0.00,,,0.00,weatherlink.com 1.10,2013-01-27 22:01:00,
2013-01-27 17:16:00,28.2,0.0,30.40,NNW,332,1.0,5.0,29,0.00,,,0.00,weatherlink.com 1.10,2013-01-27 22:16:00,
2013-01-27 17:31:00,28.0,-1.0,30.40,SW,221,1.0,7.0,28,0.00,,,0.00,weatherlink.com 1.10,2013-01-27 22:31:00,
2013-01-27 17:46:00,27.7,-1.0,30.41,West,263,2.0,6.0,29,0.00,,,0.00,weatherlink.com 1.10,2013-01-27 22:46:00,
2013-01-27 18:01:00,27.4,-3.0,30.42,WNW,283,4.0,7.0,27,0.00,,,0.00,weatherlink.com 1.10,2013-01-27 23:01:00,
2013-01-27 18:16:00,27.2,-3.0,30.43,WNW,292,3.0,8.0,27,0.00,,,0.00,weatherlink.com 1.10,2013-01-27 23:16:00,
2013-01-27 18:31:00,26.8,-3.0,30.43,North,349,2.0,6.0,27,0.00,,,0.00,weatherlink.com 1.10,2013-01-27 23:31:00,
2013-01-27 18:46:00,26.6,-4.0,30.43,West,270,1.0,7.0,26,0.00,,,0.00,weatherlink.com 1.10,2013-01-27 23:46:00,
2013-01-27 19:01:00,26.3,-4.0,30.43,NNW,329,1.0,6.0,26,0.00,,,0.00,weatherlink.com 1.10,2013-01-28 00:01:00,
2013-01-27 19:16:00,25.9,-5.0,30.44,ENE,60,2.0,6.0,26,0.00,,,0.00,weatherlink.com 1.10,2013-01-28 00:16:00,
2013-01-27 19:31:00,25.7,-5.0,30.44,North,352,8.0,10.0,26,0.00,,,0.00,weatherlink.com 1.10,2013-01-28 00:31:00,
2013-01-27 19:47:00,25.4,-4.0,30.44,West,274,1.0,9.0,27,0.00,,,0.00,weatherlink.com 1.10,2013-01-28 00:47:00,
2013-01-27 20:01:00,25.2,-4.0,30.45,SW,225,3.0,5.0,28,0.00,,,0.00,weatherlink.com 1.10,2013-01-28 01:01:00,
2013-01-27 20:16:00,25.0,-4.0,30.44,WNW,303,2.0,7.0,28,0.00,,,0.00,weatherlink.com 1.10,2013-01-28 01:16:00,
2013-01-27 20:32:00,24.7,-4.0,30.45,WNW,293,3.0,6.0,29,0.00,,,0.00,weatherlink.com 1.10,2013-01-28 01:32:00,
2013-01-27 20:47:00,24.4,-3.0,30.44,West,277,3.0,6.0,30,0.00,,,0.00,weatherlink.com 1.10,2013-01-28 01:47:00,
2013-01-27 21:02:00,24.1,-3.0,30.43,NW,316,0.0,4.0,31,0.00,,,0.00,weatherlink.com 1.10,2013-01-28 02:02:00,
2013-01-27 21:17:00,23.6,-2.0,30.43,West,277,1.0,5.0,32,0.00,,,0.00,weatherlink.com 1.10,2013-01-28 02:17:00,
2013-01-27 21:32:00,23.4,-2.0,30.44,West,279,2.0,4.0,33,0.00,,,0.00,weatherlink.com 1.10,2013-01-28 02:32:00,
2013-01-27 21:47:00,23.2,-2.0,30.45,WNW,301,3.0,5.0,33,0.00,,,0.00,weatherlink.com 1.10,2013-01-28 02:47:00,
2013-01-27 22:02:00,22.9,-2.0,30.45,SW,214,0.0,5.0,34,0.00,,,0.00,weatherlink.com 1.10,2013-01-28 03:02:00,
2013-01-27 22:17:00,22.4,-2.0,30.44,West,279,0.0,4.0,35,0.00,,,0.00,weatherlink.com 1.10,2013-01-28 03:17:00,
2013-01-27 22:32:00,22.1,-1.0,30.44,West,279,2.0,3.0,37,0.00,,,0.00,weatherlink.com 1.10,2013-01-28 03:32:00,
2013-01-27 22:47:00,22.0,0.0,30.45,NW,304,0.0,3.0,38,0.00,,,0.00,weatherlink.com 1.10,2013-01-28 03:47:00,
2013-01-27 23:02:00,21.8,0.0,30.46,WNW,283,1.0,4.0,39,0.00,,,0.00,weatherlink.com 1.10,2013-01-28 04:02:00,
2013-01-27 23:17:00,21.6,1.0,30.46,NW,314,1.0,4.0,40,0.00,,,0.00,weatherlink.com 1.10,2013-01-28 04:17:00,
2013-01-27 23:32:00,21.5,1.0,30.46,WNW,285,3.0,5.0,41,0.00,,,0.00,weatherlink.com 1.10,2013-01-28 04:32:00,
2013-01-27 23:47:00,21.6,2.0,30.45,WNW,287,3.0,4.0,42,0.00,,,0.00,weatherlink.com 1.10,2013-01-28 04:47:00,